Location: Contre
(49.7477°N, 2.0963°E)
Time: 20:47:39
(UTC+00:00)

Meteor 2-12 Rocket - Pass Details

Date: 09 August 2024
Orbit: 936 x 957 km, 82.5° (Epoch: 07 September)

Event Time Altitude Azimuth Distance (km) Brightness Sun altitude
Rises 02:02:33 0° 342° (NNW) 3,611 8.1 -18.9°
Reaches altitude 10° 02:05:22 10° 331° (NNW) 2,665 7.1 -18.7°
Maximum altitude 02:10:21 27° 275° (W) 1,717 5.5 -18.2°
Enters shadow 02:12:11 23° 248° (WSW) 1,873 5.5 -18.1°
